sat.trackr.live / text

‹ back to catalog

STARLINK-37191

NORAD 68334 · 2026-059P

PAYLOAD ACTIVE UNKNOWN

§ Identity

Operator
Country
US
Launch date
2026-03-22
Launch site
AFETR
Launch vehicle
Mass (kg)
RCS (m²)

Purposes: comms

External: N2YO · Heavens-Above · Gunter

§ Orbital elements

Epoch: 2026-05-24T20:14:26.510496Z

Period
94.10 min
Inclination
53.1606°
Eccentricity
0.0001068
Mean motion
15.30215855 rev/d
Perigee alt
474.4 km
Apogee alt
475.9 km
Semi-major
6,853.3 km
B*
6.0561e-4
RAAN
354.6478°
Arg perigee
117.5798°
Mean anomaly
242.5312°
Rev number
983

§ Raw data

STARLINK-371911 68334U 26059P   26144.84336239  .00017629  00000+0  60561-3 0  99962 68334  53.1606 354.6478 0001068 117.5798 242.5312 15.30215855  9831

JSON: /api/v1/satellites/68334 · /tle

For live sub-satellite position, see the globe view (requires WebGL).

§ Visibility from observer

Set your observer location to see the next 7 days of passes ≥ 10°. The values pass through the URL so the page stays shareable.

No JS? Fill the form by hand. The geolocation button needs JavaScript.